Wahoo, NE

3:39 PM CDT on May 22, 2018 (GMT -0500)
Wahoo Municipal

Weather History for KAHQ - November, 2012

Change the Weather History Date:

Saturday, November 24, 2012

  Actual Average Record
Temperature  
Mean Temperature 32 °F -  
Max Temperature 48 °F 44 °F 72 °F (2017)
Min Temperature 15 °F 22 °F 5 °F (1985)
Degree Days  
Heating Degree Days 34    
Moisture  
Dew Point 17 °F    
Average Humidity 56    
Maximum Humidity 79    
Minimum Humidity 32    
Precipitation  
Precipitation 0.00 in - - ()
Sea Level Pressure  
Sea Level Pressure 30.06 in    
Wind  
Wind Speed 7 mph (SSE)    
Max Wind Speed 21 mph    
Max Gust Speed 25 mph    
Visibility 10 miles    
Events      
Averages and records for this station are not official NWS values.
T = Trace of Precipitation, MM = Missing Value Source: NWS Daily Summary

Daily Weather History Graph

Daily Weather History Graph

Search for Another Location

Airport or City:

Astronomy

Nov. 24, 2012 Rise Set
Actual Time 7:25 AM CST 5:00 PM CST
Civil Twilight 6:55 AM CST 5:30 PM CST
Nautical Twilight 6:21 AM CST 6:04 PM CST
Astronomical Twilight 5:48 AM CST 6:37 PM CST
Moon 2:47 PM CST (11/24) 3:41 AM CST (11/24)
Length of Visible Light 10h 35m
Length of Day
9h 35m
Waxing Gibbous, 87% of the Moon is Illuminated
Nov 24
Waxing Gibbous
Nov 28
Full
Dec 6
Last Quarter
Dec 13
New
Dec 19
First Quarter

Hourly Weather History & Observations

Time (CST) Temp. Windchill Dew Point Humidity Pressure Visibility Wind Dir Wind Speed Gust Speed Precip Events Conditions
12:15 AM 15.1 °F 9.4 °F 8.4 °F 75% 30.38 in 10.0 mi SW 3.5 mph - N/A   Clear
12:35 AM 17.8 °F 9.6 °F 10.2 °F 72% 30.38 in 10.0 mi WSW 5.8 mph - N/A   Clear
12:55 AM 19.6 °F 14.5 °F 12.2 °F 73% 30.37 in 10.0 mi WSW 3.5 mph - N/A   Clear
1:15 AM 19.4 °F - 10.8 °F 69% 30.36 in 10.0 mi Calm Calm - N/A   Clear
1:35 AM 15.6 °F - 9.7 °F 77% 30.35 in 10.0 mi Calm Calm - N/A   Clear
1:55 AM 15.6 °F 10.0 °F 9.5 °F 77% 30.34 in 10.0 mi ENE 3.5 mph - N/A   Clear
2:15 AM 16.7 °F - 10.6 °F 77% 30.33 in 10.0 mi Calm Calm - N/A   Clear
2:35 AM 17.4 °F - 10.8 °F 75% 30.33 in 10.0 mi Calm Calm - N/A   Clear
2:55 AM 17.6 °F - 10.9 °F 75% 30.33 in 10.0 mi Calm Calm - N/A   Clear
3:15 AM 18.3 °F - 10.9 °F 73% 30.33 in 10.0 mi Calm Calm - N/A   Clear
3:55 AM 16.3 °F 10.8 °F 10.9 °F 79% 30.31 in 10.0 mi SSE 3.5 mph - N/A   Clear
4:15 AM 15.8 °F 10.2 °F 10.0 °F 78% 30.30 in 10.0 mi SE 3.5 mph - N/A   Clear
4:35 AM 16.5 °F 8.1 °F 10.9 °F 79% 30.28 in 10.0 mi SE 5.8 mph - N/A   Clear
4:55 AM 17.6 °F - 11.8 °F 78% 30.27 in 10.0 mi Calm Calm - N/A   Clear
5:15 AM 19.0 °F 13.9 °F 12.9 °F 77% 30.28 in 10.0 mi SE 3.5 mph - N/A   Clear
5:35 AM 19.8 °F 13.2 °F 12.2 °F 72% 30.27 in 10.0 mi SSE 4.6 mph - N/A   Clear
5:55 AM 20.3 °F 13.8 °F 12.9 °F 73% 30.26 in 10.0 mi SE 4.6 mph - N/A   Clear
6:15 AM 21.0 °F 12.4 °F 12.9 °F 71% 30.24 in 10.0 mi SSE 6.9 mph - N/A   Clear
6:35 AM 21.7 °F 12.3 °F 12.7 °F 68% 30.24 in 10.0 mi SSE 8.1 mph - N/A   Clear
6:55 AM 21.6 °F 12.1 °F 13.1 °F 70% 30.24 in 10.0 mi SSE 8.1 mph - N/A   Clear
7:15 AM 22.5 °F 14.1 °F 13.1 °F 67% 30.23 in 10.0 mi SSE 6.9 mph - N/A   Clear
7:35 AM 22.6 °F 13.4 °F 13.5 °F 68% 30.21 in 10.0 mi SSE 8.1 mph - N/A   Clear
7:55 AM 23.2 °F 15.0 °F 14.5 °F 70% 30.20 in 10.0 mi SE 6.9 mph - N/A   Clear
8:15 AM 25.0 °F 16.3 °F 14.2 °F 64% 30.20 in 10.0 mi SSE 8.1 mph - N/A   Clear
8:35 AM 26.2 °F 16.4 °F 14.2 °F 60% 30.20 in 10.0 mi SSE 10.4 mph - N/A   Clear
8:55 AM 27.9 °F 17.3 °F 14.0 °F 56% 30.18 in 10.0 mi SSE 12.7 mph - N/A   Clear
9:15 AM 29.3 °F 18.2 °F 13.1 °F 51% 30.16 in 10.0 mi SSE 15.0 mph - N/A   Clear
9:35 AM 31.1 °F 19.3 °F 12.9 °F 47% 30.16 in 10.0 mi SSE 18.4 mph 21.9 mph N/A   Clear
9:55 AM 32.2 °F 21.4 °F 12.9 °F 45% 30.14 in 10.0 mi SSE 16.1 mph 24.2 mph N/A   Clear
10:15 AM 33.8 °F 23.2 °F 13.5 °F 43% 30.14 in 10.0 mi SSE 17.3 mph 20.7 mph N/A   Clear
10:35 AM 34.2 °F 24.0 °F 14.0 °F 44% 30.12 in 10.0 mi SSE 16.1 mph - N/A   Clear
10:55 AM 36.3 °F 25.8 °F 14.4 °F 41% 30.09 in 10.0 mi SSE 19.6 mph 23.0 mph N/A   Clear
11:15 AM 37.8 °F 28.3 °F 14.2 °F 38% 30.09 in 10.0 mi SSE 17.3 mph 24.2 mph N/A   Clear
11:35 AM 38.7 °F 29.1 °F 14.5 °F 37% 30.07 in 10.0 mi SSE 18.4 mph - N/A   Clear
11:55 AM 40.1 °F 31.0 °F 14.9 °F 36% 30.04 in 10.0 mi SSE 18.4 mph - N/A   Clear
12:15 PM 42.1 °F 33.6 °F 14.9 °F 33% 30.02 in 10.0 mi SSE 18.4 mph 24.2 mph N/A   Clear
12:35 PM 43.0 °F 35.1 °F 15.4 °F 33% 30.00 in 10.0 mi SSE 17.3 mph 23.0 mph N/A   Clear
12:55 PM 45.1 °F 37.1 °F 16.3 °F 32% 29.98 in 10.0 mi South 20.7 mph 25.3 mph N/A   Clear
1:15 PM 45.1 °F 37.6 °F 16.7 °F 32% 29.96 in 10.0 mi South 18.4 mph 24.2 mph N/A   Clear
1:35 PM 44.4 °F 37.2 °F 16.7 °F 33% 29.95 in 10.0 mi SSW 16.1 mph 25.3 mph N/A   Clear
1:55 PM 44.2 °F 36.2 °F 17.4 °F 34% 29.94 in 10.0 mi South 19.6 mph 24.2 mph N/A   Clear
2:15 PM 45.0 °F 37.4 °F 18.1 °F 34% 29.92 in 10.0 mi South 18.4 mph - N/A   Clear
2:35 PM 45.7 °F 38.3 °F 18.7 °F 34% 29.90 in 10.0 mi South 18.4 mph 21.9 mph N/A   Clear
2:55 PM 46.6 °F - 18.7 °F 33% 29.89 in 10.0 mi South 19.6 mph - N/A   Clear
3:15 PM 46.9 °F - 19.4 °F 34% 29.89 in 10.0 mi SSW 17.3 mph 20.7 mph N/A   Clear
3:35 PM 48.0 °F - 19.6 °F 32% 29.88 in 10.0 mi South 17.3 mph - N/A   Clear
3:55 PM 47.7 °F - 20.1 °F 34% 29.88 in 10.0 mi South 12.7 mph - N/A   Clear
4:15 PM 47.3 °F - 19.9 °F 34% 29.87 in 10.0 mi South 11.5 mph - N/A   Clear
4:35 PM 46.6 °F - 20.1 °F 35% 29.88 in 10.0 mi South 10.4 mph - N/A   Clear
4:55 PM 45.0 °F 41.2 °F 20.8 °F 38% 29.88 in 10.0 mi South 6.9 mph - N/A   Clear
5:15 PM 44.2 °F 39.7 °F 21.2 °F 40% 29.87 in 10.0 mi South 8.1 mph - N/A   Clear
5:35 PM 43.5 °F 39.4 °F 21.6 °F 42% 29.86 in 10.0 mi South 6.9 mph - N/A   Clear
5:55 PM 41.9 °F 39.0 °F 22.1 °F 45% 29.87 in 10.0 mi South 4.6 mph - N/A   Clear
6:15 PM 41.5 °F 38.6 °F 21.7 °F 45% 29.86 in 10.0 mi SSE 4.6 mph - N/A   Clear
6:35 PM 40.6 °F 36.0 °F 21.2 °F 46% 29.86 in 10.0 mi SSE 6.9 mph - N/A   Clear
6:55 PM 39.0 °F 34.8 °F 21.2 °F 49% 29.86 in 10.0 mi SSE 5.8 mph - N/A   Clear
7:15 PM 38.3 °F 35.9 °F 21.2 °F 50% 29.86 in 10.0 mi SSE 3.5 mph - N/A   Clear
7:35 PM 38.3 °F 35.9 °F 21.2 °F 50% 29.86 in 10.0 mi South 3.5 mph - N/A   Clear
7:55 PM 37.2 °F - 21.9 °F 54% 29.86 in 10.0 mi Calm Calm - N/A   Clear
8:15 PM 36.7 °F 34.1 °F 22.1 °F 56% 29.86 in 10.0 mi NNE 3.5 mph - N/A   Scattered Clouds
8:35 PM 36.3 °F 33.7 °F 22.6 °F 58% 29.85 in 10.0 mi SE 3.5 mph - N/A   Clear
8:55 PM 36.9 °F 34.3 °F 21.9 °F 55% 29.85 in 10.0 mi SSE 3.5 mph - N/A   Scattered Clouds
9:15 PM 34.7 °F - 21.9 °F 60% 29.86 in 10.0 mi Calm Calm - N/A   Mostly Cloudy
9:35 PM 36.5 °F - 22.3 °F 56% 29.86 in 10.0 mi Calm Calm - N/A   Mostly Cloudy
9:55 PM 36.5 °F - 22.6 °F 57% 29.86 in 10.0 mi Calm Calm - N/A   Mostly Cloudy
10:15 PM 34.2 °F 29.0 °F 27.0 °F 75% 29.87 in 10.0 mi WSW 5.8 mph - N/A   Scattered Clouds
10:35 PM 34.5 °F - 27.1 °F 74% 29.87 in 10.0 mi Calm Calm - N/A   Clear
10:55 PM 34.3 °F - 26.1 °F 72% 29.86 in 10.0 mi Calm Calm - N/A   Clear
11:15 PM 33.3 °F - 24.6 °F 71% 29.87 in 10.0 mi Calm Calm - N/A   Clear
11:35 PM 32.4 °F - 23.4 °F 69% 29.87 in 10.0 mi Calm Calm - N/A   Clear
11:55 PM 34.0 °F 31.0 °F 23.2 °F 65% 29.86 in 10.0 mi WNW 3.5 mph - N/A   Clear